Louisville Bowman, KY

7:57 PM EDT on May 27, 2018 (GMT -0400)
Bowman

Weather History for KLOU - January, 2014

Change the Weather History Date:

Monday, January 6, 2014

  Actual Average Record
Temperature  
Mean Temperature 8 °F 34 °F  
Max Temperature 19 °F 42 °F 66 °F (1998)
Min Temperature -3 °F 27 °F -3 °F (2014)
Degree Days  
Heating Degree Days 57 30  
Month to date heating degree days 229 180  
Since 1 July heating degree days 1977 1844  
Cooling Degree Days 0 0  
Month to date cooling degree days 0 0  
Year to date cooling degree days 0 0  
Moisture  
Dew Point -9 °F    
Average Humidity 62    
Maximum Humidity 73    
Minimum Humidity 51    
Precipitation  
Precipitation T in 0.11 in 0.97 in (1991)
Month to date precipitation 0.76 0.76  
Year to date precipitation 0.76 0.76  
Sea Level Pressure  
Sea Level Pressure 30.35 in    
Wind  
Wind Speed 16 mph (West)    
Max Wind Speed 28 mph    
Max Gust Speed 37 mph    
Visibility 9 miles    
Events Snow    
T = Trace of Precipitation, MM = Missing Value Source: NWS Daily Summary

Daily Weather History Graph

Daily Weather History Graph

Search for Another Location

Airport or City:

Astronomy

Jan. 06, 2014 Rise Set
Actual Time 7:59 AM EST 5:37 PM EST
Civil Twilight 7:30 AM EST 6:06 PM EST
Nautical Twilight 6:57 AM EST 6:39 PM EST
Astronomical Twilight 6:25 AM EST 7:11 PM EST
Moon 11:20 AM EST (1/6) No Moon Set
Length of Visible Light 10h 36m
Length of Day
9h 37m
Waxing Crescent, 34% of the Moon is Illuminated
Jan 6
Waxing Crescent
Jan 7
First Quarter
Jan 15
Full
Jan 24
Last Quarter
Jan 30
New

Hourly Weather History & Observations

Time (EST) Temp. Windchill Dew Point Humidity Pressure Visibility Wind Dir Wind Speed Gust Speed Precip Events Conditions
12:53 AM 16.0 °F -2.1 °F 9.0 °F 74% 29.99 in 9.0 mi WNW 23.0 mph 33.4 mph 0.00 in Snow Light Snow
1:53 AM 15.1 °F 1.1 °F 7.0 °F 70% 30.04 in 10.0 mi NW 12.7 mph 26.5 mph 0.00 in   Overcast
2:53 AM 12.9 °F -5.3 °F 5.0 °F 71% 30.09 in 10.0 mi NW 20.7 mph 31.1 mph 0.00 in   Overcast
3:20 AM 12.2 °F -4.8 °F 5.0 °F 73% 30.11 in 10.0 mi WNW 17.3 mph 23.0 mph N/A   Overcast
3:28 AM 12.2 °F -3.1 °F 3.2 °F 67% 30.11 in 10.0 mi West 13.8 mph 24.2 mph 0.00 in Snow Light Snow
3:53 AM 10.0 °F -6.5 °F 1.9 °F 70% 30.16 in 10.0 mi West 15.0 mph 26.5 mph 0.00 in   Overcast
4:53 AM 7.0 °F -12.6 °F -2.9 °F 64% 30.20 in 10.0 mi WNW 19.6 mph 27.6 mph N/A   Overcast
5:53 AM 3.9 °F -16.1 °F -6.0 °F 64% 30.24 in 10.0 mi West 18.4 mph 28.8 mph 0.00 in   Overcast
6:53 AM 3.0 °F -17.3 °F -7.1 °F 63% 30.27 in 9.0 mi West 18.4 mph 24.2 mph 0.00 in   Overcast
7:53 AM 1.0 °F -19.9 °F -9.9 °F 60% 30.30 in 10.0 mi WNW 18.4 mph 23.0 mph 0.00 in   Overcast
8:18 AM -0.4 °F -22.3 °F -11.2 °F 60% 30.29 in 10.0 mi West 19.6 mph 25.3 mph N/A   Scattered Clouds
8:53 AM -0.0 °F -20.1 °F -11.9 °F 57% 30.34 in 10.0 mi WNW 16.1 mph 26.5 mph N/A   Scattered Clouds
9:08 AM -0.4 °F -21.7 °F -11.2 °F 60% 30.32 in 10.0 mi West 18.4 mph - N/A   Mostly Cloudy
9:53 AM -0.0 °F -20.7 °F -13.0 °F 54% 30.37 in 10.0 mi West 17.3 mph - N/A   Scattered Clouds
10:53 AM -0.0 °F -20.7 °F -13.0 °F 54% 30.39 in 10.0 mi West 17.3 mph 26.5 mph N/A   Scattered Clouds
11:53 AM 1.0 °F -20.4 °F -11.9 °F 55% 30.38 in 10.0 mi West 19.6 mph 26.5 mph N/A   Overcast
12:16 PM -0.4 °F -21.2 °F -13.0 °F 55% 30.35 in 7.0 mi WNW 17.3 mph 28.8 mph N/A   Overcast
12:38 PM -0.4 °F -19.9 °F -13.0 °F 55% 30.35 in 10.0 mi WSW 15.0 mph 26.5 mph N/A   Overcast
12:53 PM -0.0 °F -18.7 °F -11.9 °F 57% 30.39 in 10.0 mi West 13.8 mph 21.9 mph N/A   Overcast
1:53 PM 1.0 °F -17.3 °F -13.0 °F 52% 30.36 in 10.0 mi West 13.8 mph 24.2 mph N/A   Overcast
2:53 PM 1.9 °F -18.1 °F -11.9 °F 52% 30.38 in 10.0 mi West 17.3 mph 24.2 mph N/A   Overcast
3:23 PM 1.4 °F -18.2 °F -13.0 °F 51% 30.36 in 10.0 mi West 16.1 mph 25.3 mph N/A   Overcast
3:53 PM 1.0 °F -19.3 °F -11.0 °F 57% 30.40 in 10.0 mi West 17.3 mph 23.0 mph N/A   Mostly Cloudy
4:21 PM 1.4 °F -16.9 °F -7.6 °F 66% 30.37 in 1.5 mi WNW 13.8 mph 24.2 mph 0.00 in Snow Light Snow
4:32 PM 1.4 °F -16.9 °F -9.4 °F 61% 30.38 in 4.0 mi West 13.8 mph 23.0 mph 0.00 in Snow Light Snow
4:43 PM 1.4 °F -17.6 °F -9.4 °F 61% 30.39 in 10.0 mi West 15.0 mph 26.5 mph 0.00 in   Overcast
4:53 PM -0.0 °F -21.8 °F -11.0 °F 60% 30.43 in 9.0 mi West 19.6 mph 24.2 mph 0.00 in   Overcast
5:03 PM -0.4 °F -20.5 °F -9.4 °F 66% 30.39 in 1.8 mi WNW 16.1 mph - 0.00 in Snow Light Snow
5:13 PM -0.4 °F -19.9 °F -9.4 °F 66% 30.40 in 3.0 mi West 15.0 mph - 0.00 in Snow Light Snow
5:53 PM -0.9 °F -19.9 °F -13.0 °F 57% 30.44 in 10.0 mi WNW 13.8 mph - 0.00 in   Scattered Clouds
6:53 PM -0.9 °F -21.2 °F -13.0 °F 57% 30.48 in 10.0 mi West 16.1 mph 23.0 mph N/A   Partly Cloudy
7:53 PM -2.0 °F -20.5 °F -11.9 °F 63% 30.50 in 9.0 mi WNW 12.7 mph - N/A   Mostly Cloudy
8:18 PM -2.2 °F -20.7 °F -14.8 °F 55% 30.46 in 10.0 mi WNW 12.7 mph - N/A   Mostly Cloudy
8:28 PM -2.2 °F -22.2 °F -14.8 °F 55% 30.46 in 10.0 mi West 15.0 mph 26.5 mph N/A   Partly Cloudy
8:53 PM -2.9 °F -20.8 °F -15.0 °F 56% 30.52 in 10.0 mi West 11.5 mph 24.2 mph N/A   Partly Cloudy
9:53 PM -2.9 °F -19.8 °F -14.1 °F 59% 30.53 in 10.0 mi WSW 10.4 mph - N/A   Mostly Cloudy
10:33 PM -2.2 °F -19.9 °F -14.8 °F 55% 30.50 in 10.0 mi West 11.5 mph - N/A   Partly Cloudy
10:53 PM -2.9 °F -19.8 °F -14.1 °F 59% 30.54 in 10.0 mi West 10.4 mph 19.6 mph N/A   Clear
11:53 PM -2.9 °F -18.8 °F -13.0 °F 62% 30.53 in 10.0 mi West 9.2 mph - N/A   Clear